Location: Unspecified
(0.0000°N, 0.0000°E)
Time: 10:44:08
(UTC+02:00)

IUS-9 SRM-1 - Visible Passes

Search period start: 28 August 2016 00:00
Search period end: 07 September 2016 00:00
Orbit: 230 x 20025 km, 26.5° (Epoch: 26 August)

Date Brightness Start Highest point End Pass type
(mag) Time Alt. Az. Time Alt. Az. Time Alt. Az.
28 Aug 7.8 02:04:44 10° WNW 06:18:42 80° NNE 06:40:09 10° ESE visible
28 Aug 6.3 18:51:59 10° WSW 19:00:37 90° SE 21:26:01 10° ENE visible
29 Aug 8.2 01:21:44 10° WNW 05:37:02 75° NNE 06:04:51 10° ESE visible
29 Aug 5.9 18:17:24 10° SW 18:24:31 78° SSE 19:42:54 10° ENE visible
30 Aug 8.3 00:40:54 10° WNW 04:52:12 70° NNE 05:29:07 10° ESE visible
31 Aug 8.4 00:01:30 10° WNW 04:02:42 65° NNE 04:52:53 10° E visible
31 Aug 8.6 23:23:06 10° WNW 03:06:28 61° NNE 04:16:00 10° E visible
01 Sep 8.7 22:45:25 10° WNW 01:59:41 56° NNE 03:38:19 10° E visible
02 Sep 8.8 22:08:15 10° W 22:58:56 54° N 02:59:32 10° E visible
03 Sep 6.4 07:45:19 10° WNW 09:07:52 40° SW 09:16:39 10° SSE visible
03 Sep 8.7 21:31:28 10° W 22:05:07 55° N 02:19:14 10° E visible
04 Sep 6.6 05:51:56 10° WNW 08:31:20 51° SW 08:41:41 10° SE visible
04 Sep 8.3 20:54:57 10° W 21:19:03 56° N 01:36:41 10° E visible
05 Sep 6.8 04:26:27 10° WNW 07:54:08 62° SW 08:06:26 10° SE visible
05 Sep 7.8 20:18:38 10° W 20:36:33 58° NNW 00:50:25 10° E visible
06 Sep 7.1 03:24:03 10° WNW 07:16:03 72° SW 07:30:54 10° SE visible
06 Sep 7.4 19:42:27 10° W 19:56:07 61° NNW 23:57:18 10° ENE visible
